星链-36446(STARLINK-36446)

导读 | 豆包AI

STARLINK-36446是由美国于2026年1月12日发射的SpaceX星链卫星,隶属于星链互联网星座项目。星链项目旨在通过构建低轨卫星星座,为全球提供高速宽带互联网服务,该卫星入轨后将与其他星链卫星组网,进一步拓展全球覆盖范围,提升星座服务能力,助力全球网络覆盖目标推进。

基本信息
目录编号:
67412
目录名称:
STARLINK-36446
国际标识:
2026-005J
轨道中心:
EARTH
卫星名称:
星链-36446
卫星全名:
星链-36446(STARLINK-36446)
卫星状态:
在轨 (已飞行133 天)
发射日期:
2026-01-12 UTC
国别 :
美国 (US)
星等 :
--
轨道信息
数据来源 国际轨道数据
星历时间: 2026-05-25T10:33:14+0800
6小时前
查看轨道信息
半长轴: 6861.151km
偏心率: 0.0000692
轨道倾角: 42.997°
近地点辐角 242.992°
升交点赤经 166.406°
平近点角 117.086°
近地点: 482.539km
远地点: 483.489km
周期: 94.266分钟
每日圈数: 15.275918
详细信息
固有亮度:
5
最大亮度:
2.5
卫星平台:
Starlink V1.0
覆盖范围:
全球
运营商:
太空探索技术公司
运营商所在国:
美国
制造商(研发单位):
太空探索技术公司
制造商所在国:
美国
使用方式:
暂无
卫星简介
Starlink 计划是 SpaceX 推出的全球卫星互联网项目,通过发射低轨道卫星,为全球尤其是偏远地区提供高速、低延迟的互联网服务。自 2019 年起,Starlink 已部署数千颗卫星,旨在缩小全球数字鸿沟,推动互联网普及。该项目还为军事、航空等行业提供通信支持,带来广泛经济效益。
2D轨道图
3D轨道图
轨道高度分析图
轨道倾角分析图
轨道综合分析图
查看轨道综合分析图